sat.trackr.live / text

‹ back to catalog

STARLINK-1524

NORAD 46047 · 2020-055W

PAYLOAD ACTIVE UNKNOWN

§ Identity

Operator
Country
US
Launch date
2020-08-07
Launch site
AFETR
Launch vehicle
Mass (kg)
RCS (m²)

Purposes: comms

External: N2YO · Heavens-Above · Gunter

§ Orbital elements

Epoch: 2026-09-09T12:19:22.373760Z

Period
94.01 min
Inclination
53.1610°
Eccentricity
0.0001190
Mean motion
15.31719478 rev/d
Perigee alt
469.9 km
Apogee alt
471.5 km
Semi-major
6,848.8 km
B*
1.1223e-4
RAAN
338.5547°
Arg perigee
86.9353°
Mean anomaly
273.1785°
Rev number
33,723

§ Raw data

STARLINK-15241 46047U 20055W   26252.51345340  .00003121  00000+0  11223-3 0  99932 46047  53.1610 338.5547 0001190  86.9353 273.1785 15.31719478337236

JSON: /api/v1/satellites/46047 · /tle

For live sub-satellite position, see the globe view (requires WebGL).

§ Visibility from observer

Set your observer location to see the next 7 days of passes ≥ 10°. The values pass through the URL so the page stays shareable.

No JS? Fill the form by hand. The geolocation button needs JavaScript.